THOR AGENA B R/B, 426

Orbit data source: Space-Track

THOR AGENA B R/B, 426 is space debris in LEO originally from a launch on Sat, 29 Sep 1962 UTC via a THOR AGENA B launch vehicle from the Air Force Western Test Range (AFWTR). Debris objects in space refer to the collection of defunct objects orbiting the Earth. Examples of debris include non-operational satellites, rocket bodies, and fragments generated from explosions, collisions, or faulty payload assembly.

Loading next visibility...
Identifier
426, 1962-049B
Orbit
LEO
Country
Flag of USUS
Related business
Manufacturer
GSFC
Mission
Spacecraft
Bus & Motor
TAVE, Unknown motor
Mass
900 kg wet, 91 kg dry
Launch date (UTC)
1962-09-29 (64 years ago)
Launch vehicle
THOR AGENA B
Launch site
Air Force Western Test Range (AFWTR)
Object type
Payload
Rocket body
Debris
Shape & HBR
Unknown
Radar Cross Section
Large (>1 m²)

Expand to show TLE details & history
Last TLE update: 8 hours ago

TLE from 8 hours ago
0 THOR AGENA B R/B
1   426U 62049B   26122.04378500  .00000073  00000-0  73913-4 0  9990
2   426  80.4691 313.6750 0017707 349.9911 172.5482 13.68756212173815
Epoch: 2026-05-02T01:03Z
TLE epoch observation values (Epoch: 2026-05-02T01:03:03.024Z)
Latitude
17.17488°
Longitude
-105.0141°
Altitude
1,019.219 km
Speed
7.337 km/s
True Right ascension
08h 42m 51s
True Declination
17° 04' 53"
Sunlit
Object was in daylight at epoch
Visualization orbit readout
Latitude
Unknown
Longitude
Unknown
Altitude
Unknown
Speed
Unknown
Apparent Right ascension
Unknown
Apparent Declination
Unknown
Sunlit
N/A
Visualization observer readout
Local Sidereal Time
17:00:15
Azimuth
Unknown
Elevation
Unknown
Doppler factor
Unknown
Orbital elements
Apogee altitude
1,014.374 km
Perigee altitude
988.241 km
Semi-major axis
7,379.444 km
Eccentricity
0.00177
Inclination
80.4691°
RAAN
313.675°
Arg. of periapsis
349.9911°
True anomaly
172.57446°
Mean anomaly
172.5482°
Eccentric anomaly
172.56133°
Mean motion
3.42379 °/min
Orbital period
105.15 mins
BSTAR
0.000073913
Loading maneuver chart data...
Computing Atmospheric mass density...
Loading historical data...
Loading historical data...
Loading historical data...
Loading historical data...
Loading historical data...
Loading historical data...
Loading historical data...
Other satellites on launch #49 in the year 1962 (1962-09-29 UTC)

Documentation

Showing up to 5 results
|